This demonstration page uses our WeatherBlox Daily Observations layout. Learn more.

Left ArrowRight Arrow

34.16533, -84.80231

Hourly Observations for June 3, 2019

Temp ( °F °C ) Dew Point ( °F °C ) Humidity (%) Winds ( mph kmh ) Pressure ( in mb ) Visibility ( mi km ) Precip ( " mm )
12:53 am 00:53 Clear 65 18.3 64 17.8 97 97 Calm 29.89 1012 10 16 0.00 0.00
1:53 am 01:53 Clear 64 17.8 63 17.2 96 96 Calm 29.88 1012 10 16 0.00 0.00
2:53 am 02:53 Clear 63 17.2 62 16.7 97 97 Calm 29.89 1012 9 14 0.00 0.00
3:53 am 03:53 Clear 64 17.8 62 16.7 93 93 Calm 29.89 1012 8 13 0.00 0.00
4:53 am 04:53 Clear 63 17.2 62 16.7 97 97 Calm 29.91 1013 7 11 0.00 0.00
5:02 am 05:02 Partly Cloudy 64 17.8 63 17.2 96 96 Calm 29.94 1014 7 11 0.00 0.00
5:11 am 05:11 Mostly Cloudy with Mist and Fog 63 17.2 63 17.2 100 100 Calm 29.94 1014 5 8 0.00 0.00
5:53 am 05:53 Mostly Cloudy with Mist and Fog 64 17.8 63 17.2 96 96 Calm 29.93 1013 5 8 0.00 0.00
6:30 am 06:30 Cloudy with Mist and Fog 64 17.8 63 17.2 96 96 Calm 29.96 1014 3 4 0.00 0.00
6:38 am 06:38 Mostly Cloudy with Mist and Fog 64 17.8 63 17.2 96 96 Calm 29.97 1015 4 6 0.00 0.00
6:46 am 06:46 Partly Cloudy with Mist and Fog 64 17.8 63 17.2 96 96 Calm 29.97 1015 4 6 0.00 0.00
6:53 am 06:53 Partly Cloudy with Mist and Fog 64 17.8 63 17.2 96 96 Calm 29.95 1014 5 8 0.00 0.00
7:53 am 07:53 Sunny 66 18.9 64 17.8 93 93 Calm 29.97 1015 7 11 0.00 0.00
8:53 am 08:53 Sunny 71 21.7 66 18.9 84 84 Calm 29.99 1016 10 16 0.00 0.00
9:53 am 09:53 Sunny 76 24.4 64 17.8 67 67 NNE 6 9 30.00 1016 10 16 0.00 0.00
10:53 am 10:53 Sunny 80 26.7 62 16.7 54 54 VRB 6 9 30.00 1016 10 16 0.00 0.00
11:53 am 11:53 Partly Cloudy 82 27.8 62 16.7 51 51 Calm 30.00 1016 10 16 0.00 0.00
12:53 pm 12:53 Mostly Sunny 86 30 59 15 40 40 VRB 5 7 30.00 1016 10 16 0.00 0.00
1:53 pm 13:53 Sunny 88 31.1 59 15 38 38 N 9 15 29.98 1015 10 16 0.00 0.00
3:53 pm 15:53 Sunny 88 31.1 57 13.9 35 35 N 8 13 29.97 1015 10 16 0.00 0.00
4:53 pm 16:53 Sunny 88 31.1 55 12.8 33 33 NNE 9 15 29.96 1015 10 16 0.00 0.00
5:53 pm 17:53 Sunny 86 30 55 12.8 35 35 N 9 15 29.96 1015 10 16 0.00 0.00
6:53 pm 18:53 Sunny 83 28.3 56 13.3 40 40 NNE 9 15 29.96 1014 10 16 0.00 0.00
7:53 pm 19:53 Sunny 82 27.8 55 12.8 40 40 N 9 15 29.97 1015 10 16 0.00 0.00
8:53 pm 20:53 Clear 76 24.4 55 12.8 48 48 Calm 29.99 1016 10 16 0.00 0.00
9:53 pm 21:53 Clear 69 20.6 57 13.9 66 66 Calm 30.01 1016 10 16 0.00 0.00
10:53 pm 22:53 Clear 66 18.9 57 13.9 73 73 Calm 30.03 1017 10 16 0.00 0.00
11:53 pm 23:53 Clear 66 18.9 56 13.3 70 70 Calm 30.03 1017 10 16 0.00 0.00

Powered by AerisWeather